Torna al catalogo

STARLINK-3992

AttivoComunicazioniVLEO
NORAD 52627·PAYLOAD·🇺🇸 United States

Lanciato May 14, 2022 da Cape Canaveral Space Force Station

Loading…

Prossimi Passaggi (prossime 24 ore)

TLE

AggiornatoSource: CelesTrak SupGP

Epoca: Sep 14, 2026, 20:47 UTC

1 52627C 22052AF  26257.86645833 -.00026661  00000+0 -76282-3 0  2575
2 52627  53.1564 129.0510 0001174  86.4332 299.1837 15.35411140    10

Traccia STARLINK-3992 in tempo reale con AllMySat

Download on the App Store